Back to catalog

STARLINK-30823

AliveCommunicationsVLEO
NORAD 58248·PAYLOAD·🇺🇸 United States

Launched Nov 8, 2023 from Cape Canaveral Space Force Station

Loading…

Next Passes (next 24 hours)

TLE

FreshSource: CelesTrak SupGP

Epoch: Sep 14, 2026, 22:00 UTC

1 58248C 23171U   26257.91715278 -.00020782  00000+0 -75279-3 0  2573
2 58248  43.0025 296.6018 0001905 264.7740 113.0065 15.27585054    19

Track STARLINK-30823 in real time with AllMySat

Download on the App Store